Location: Park Creek Village Mobile Home Park
(38.2885°N, 122.4714°W)
Time: 19:08:59
(UTC+00:00)

USA 234 - Pass Details

Date: 14 December 2019
Orbit: 1099 x 1108 km, 123.0° (Epoch: 20 January)

Event Time Altitude Azimuth Distance (km) Brightness Sun altitude
Rises 12:33:12 0° 45° (NE) 3,922 6.6 -31.6°
Reaches altitude 10° 12:35:41 10° 45° (NE) 2,963 5.9 -31.1°
Maximum altitude 12:42:15 90° 328° (NNW) 1,107 3.1 -29.8°
Enters shadow 12:43:06 71° 227° (SW) 1,162 3.1 -29.7°
